User: anonymous   Login
Location: Bambrugge
(50.9212°N, 3.9299°E)
Time: 01:55:21
(UTC+00:00)
Language:

Helios 1A Rocket - Orbit

View from above orbital plane
View from above orbital plane
View from above satellite
View from above satellite

Ground track
Ground track

The orbit data is extracted from the following two-line orbital elements,

1 23608U 95033D   24200.60132795  .00017307  00000-0  10039-2 0  9993
2 23608  98.2552 326.9031 0014986 311.5886  48.4057 15.12146829575268
Epoch (UTC): 18 July 2024 14:25:54
Eccentricity: 0.0014986
inclination: 98.2552°
perigee height: 519 km
apogee height: 540 km
right ascension of ascending node: 326.9031°
argument of perigee: 311.5886°
revolutions per day: 15.12146829
mean anomaly at epoch: 48.4057°
orbit number at epoch: 57526

The dashed part of the orbit path shows where the satellite is in the earth's shadow,  

DLR